214P/LINEAR (2022)

Japanese version
Home page
Updated on November 1, 2021

---------------------------------------------------------------------

* Profile

* Orbital Elements

Epoch 2022 Sept. 18.0 TT = JDT 2459840.5
T 2022 Sept. 26.22321 TT                                MPCW
q   1.8609794            (2000.0)            P               Q
n   0.14309570     Peri.  190.18434     -0.99836926     -0.02034067
a   3.6200813      Node   348.24913     +0.04904677     -0.78373857
e   0.4859288      Incl.   15.18327     -0.02921003     -0.62075770
P   6.89
From 121 observations 2002 Jan. 15-2009 May 3, mean residual 0".6.

* Magnitudes Graph

        m1 = 15.5 + 5 log d + 10.0 log r

---------------------------------------------------------------------

The orbital elements are published on M.P.E.C. 2015-E14.
The magnitudes graphs are made with Comet for Windows.

---------------------------------------------------------------------

Copyright(C) Seiichi Yoshida (comet@aerith.net). All rights reserved.